Terug naar catalogus

UNICORN-2S

ActiefMilitairSSO
NORAD 68475·PAYLOAD·🇩🇪 Germany

Gelanceerd Mar 30, 2026 vanaf Vandenberg Space Force Base

Loading…

Volgende Passages (komende 24 uur)

TLE

VersSource: Space-Track

Epoch: Sep 14, 2026, 08:31 UTC

1 68475U 26067BM  26257.35497484  .00007106  00000-0  68260-3 0  9996
2 68475  97.7584 214.1737 0005651 105.8434 254.3409 14.93343134 24502

Volg UNICORN-2S in realtime met AllMySat

Download on the App Store